Погода в Лиственичном

Россия / Ханты-Мансийский автономный округ - Югра     59°38′45″N   65°42′39″E
темп.,
°C
ветер,
м/с
пор.,
м/с
влажн.,
%
обл.,
%
осадки,
мм/ч
давл.,
гПа
погр.,
м
29 мая, вс
вс2923:00+10ююв379431 0.0 1007119
02:00+10ю399620 0.0 1007196
05:00+10ю399519 0.0 1006227
08:00+14ю597654 0.0 1005687
11:00+12ю31090100 3.4 1004715
14:00+12ююз489196 4.1 1003646
17:00+15зюз588033 6.6 1003954
20:00+12з61187100 1.5 1004792
30 мая, пн
пн3023:00+10з5119294 1.8 1006674
02:00+10з51194100 0.1 1007837
05:00+11з51095100 0.3 1008752
08:00+10зюз4994100 0.1 1009614
11:00+12зюз578799 0.2 1011671
14:00+12з388897 0.1 1011497
17:00+15сз466821 0.3 1011989
20:00+13ссз36820 0.2 1010458
31 мая, вт
вт3123:00+9ссз269787 0.2 1011142
02:00+8сз389872 0.0 1010221
05:00+9ссз3796100 0.0 1010219
08:00+10ссз4989100 0.1 1011454
11:00+16ссв5742100 0.1 10121862
14:00+17с5737100 0.0 10132551
17:00+17с574159 0.0 10142318
20:00+14ссз38475 0.0 1015355
1 июня, ср
ср123:00+9сз3961100 0.0 1015154
02:00+8сз386993 0.0 1015160
05:00+8сз31065100 0.0 1015249
08:00+14сз511475 0.0 1014671
11:00+17ссз710365 0.0 10132093
14:00+19ссз7113031 0.0 10132994
17:00+19с6123325 0.0 10133023
20:00+14с59420 0.0 10151103
2 июня, чт
чт223:00+9ссв411470 0.0 1018502
02:00+6с26650 0.0 1020147
05:00+5с39660 0.0 1021626
08:00+9с58474 0.0 10221155
11:00+13с57395 0.0 10221511
14:00+16с56335 0.0 10211939
17:00+16ссз46315 0.0 10212065
20:00+14ссз22500 0.0 102142